Location: Tamazert
(32.6352°N, 5.2072°W)
Time: 21:47:10
(UTC+00:00)

Cosmos 2074 Rocket - Pass Details

Date: 22 May 2022
Orbit: 968 x 985 km, 82.9° (Epoch: 24 June)

Event Time Altitude Azimuth Distance (km) Brightness Sun altitude
Rises 03:11:50 0° 349° (NNW) 3,692 7.5 -22.6°
Reaches altitude 10° 03:14:23 10° 345° (NNW) 2,742 6.7 -22.2°
Maximum altitude 03:20:32 58° 268° (W) 1,137 4.1 -21.3°
Enters shadow 03:22:57 36° 208° (SSW) 1,503 4.5 -20.9°
